Weather History for KAQP - December, 2012

Change the Weather History Date:

Sunday, December 30, 2012

  Actual Average Record
Temperature  
Mean Temperature 8 °F -  
Max Temperature 21 °F 20 °F 48 °F (2004)
Min Temperature -5 °F 5 °F -9 °F (2008)
Degree Days  
Heating Degree Days 57    
Moisture  
Dew Point 3 °F    
Average Humidity 83    
Maximum Humidity 93    
Minimum Humidity 73    
Precipitation  
Precipitation 0.00 in - - ()
Sea Level Pressure  
Sea Level Pressure 30.00 in    
Wind  
Wind Speed 4 mph (East)    
Max Wind Speed 22 mph    
Max Gust Speed 26 mph    
Visibility 10 miles    
Events      
Averages and records for this station are not official NWS values.
T = Trace of Precipitation, MM = Missing Value Source: NWS Daily Summary

Daily Weather History Graph

Daily Weather History Graph

Search for Another Location

Airport or City:

Trip Planner

Search our weather history database for the weather conditions in past years. The results will help you decide how hot, cold, wet, or windy it might be!

Date:

Astronomy

Dec. 30, 2012 Rise Set
Actual Time 8:03 AM CST 4:50 PM CST
Civil Twilight 7:29 AM CST 5:24 PM CST
Nautical Twilight 6:51 AM CST 6:02 PM CST
Astronomical Twilight 6:16 AM CST 6:37 PM CST
Moon 7:30 PM CST 9:05 AM CST
Length of Visible Light 9h 55m
Length of Day
8h 47m
Waning Gibbous, 95% of the Moon is Illuminated
Dec 30
Waning Gibbous
Jan 4
Last Quarter
Jan 11
New
Jan 18
First Quarter
Jan 26
Full

Hourly Weather History & Observations

Time (CST) Temp. Windchill Dew Point Humidity Pressure Visibility Wind Dir Wind Speed Gust Speed Precip Events Conditions
12:13 AM -5.8 °F - -9.4 °F 84% 30.13 in 10.0 mi Calm Calm - N/A   Clear
12:34 AM -5.8 °F - -9.4 °F 84% 30.12 in 10.0 mi Calm Calm - N/A   Clear
12:53 AM -5.8 °F - -9.4 °F 84% 30.12 in 10.0 mi Calm Calm - N/A   Clear
1:14 AM -5.8 °F - -9.4 °F 84% 30.12 in 10.0 mi Calm Calm - N/A   Clear
1:33 AM -4.0 °F - -9.4 °F 78% 30.11 in 10.0 mi Calm Calm - N/A   Clear
1:54 AM -2.2 °F - -7.6 °F 78% 30.12 in 10.0 mi Calm Calm - N/A   Clear
2:13 AM -4.0 °F - -7.6 °F 85% 30.13 in 10.0 mi Calm Calm - N/A   Clear
2:33 AM -4.0 °F - -9.4 °F 78% 30.13 in 10.0 mi Calm Calm - N/A   Clear
2:53 AM -5.8 °F -14.5 °F -9.4 °F 84% 30.11 in 10.0 mi East 3.5 mph - N/A   Clear
3:13 AM -2.2 °F -10.4 °F -5.8 °F 85% 30.10 in 10.0 mi East 3.5 mph - N/A   Clear
3:33 AM -2.2 °F - -5.8 °F 85% 30.12 in 10.0 mi Calm Calm - N/A   Clear
3:54 AM -0.4 °F - -5.8 °F 78% 30.12 in 10.0 mi Calm Calm - N/A   Clear
4:13 AM -0.4 °F -10.4 °F -5.8 °F 78% 30.10 in 10.0 mi ESE 4.6 mph - N/A   Clear
4:35 AM -0.4 °F -8.3 °F -4.0 °F 85% 30.09 in 10.0 mi SE 3.5 mph - N/A   Clear
4:53 AM -0.4 °F -8.3 °F -4.0 °F 85% 30.09 in 10.0 mi SE 3.5 mph - N/A   Clear
5:13 AM -0.4 °F - -5.8 °F 78% 30.09 in 10.0 mi Calm Calm - N/A   Clear
5:33 AM -0.4 °F -10.4 °F -4.0 °F 85% 30.07 in 10.0 mi SE 4.6 mph - N/A   Clear
5:54 AM 1.4 °F -6.2 °F -2.2 °F 85% 30.07 in 10.0 mi ESE 3.5 mph - N/A   Clear
6:14 AM 1.4 °F -8.3 °F -2.2 °F 85% 30.07 in 10.0 mi ESE 4.6 mph - N/A   Clear
6:33 AM 3.2 °F -6.2 °F -0.4 °F 85% 30.07 in 10.0 mi ESE 4.6 mph - N/A   Clear
6:53 AM 3.2 °F -7.8 °F -0.4 °F 85% 30.06 in 10.0 mi ESE 5.8 mph - N/A   Clear
7:14 AM 1.4 °F -9.9 °F -2.2 °F 85% 30.06 in 10.0 mi ESE 5.8 mph - N/A   Clear
7:33 AM 3.2 °F -6.2 °F -0.4 °F 85% 30.05 in 10.0 mi ESE 4.6 mph - N/A   Clear
7:53 AM 3.2 °F -7.8 °F -0.4 °F 85% 30.06 in 10.0 mi SE 5.8 mph - N/A   Clear
8:13 AM 3.2 °F -6.2 °F -0.4 °F 85% 30.04 in 10.0 mi ESE 4.6 mph - N/A   Clear
8:33 AM 3.2 °F -6.2 °F -0.4 °F 85% 30.04 in 10.0 mi SE 4.6 mph - N/A   Clear
8:53 AM 5.0 °F -5.6 °F 1.4 °F 85% 30.03 in 10.0 mi ESE 5.8 mph - N/A   Clear
9:13 AM 6.8 °F -4.8 °F 1.4 °F 79% 30.03 in 10.0 mi SE 6.9 mph - N/A   Clear
9:33 AM 6.8 °F -2.0 °F 3.2 °F 85% 30.03 in 10.0 mi SE 4.6 mph - N/A   Clear
9:53 AM 8.6 °F -3.7 °F 5.0 °F 85% 30.02 in 10.0 mi SE 8.1 mph - N/A   Clear
10:13 AM 10.4 °F -1.5 °F 6.8 °F 85% 30.01 in 10.0 mi ESE 8.1 mph - N/A   Clear
10:33 AM 12.2 °F 0.7 °F 8.6 °F 85% 30.00 in 10.0 mi ESE 8.1 mph - N/A   Clear
10:53 AM 10.4 °F 0.8 °F 6.8 °F 85% 29.99 in 10.0 mi ESE 5.8 mph - N/A   Clear
11:13 AM 10.4 °F 0.8 °F 6.8 °F 85% 29.98 in 10.0 mi ESE 5.8 mph - N/A   Clear
11:33 AM 12.2 °F 2.9 °F 6.8 °F 79% 29.96 in 10.0 mi ESE 5.8 mph - N/A   Clear
11:53 AM 12.2 °F 1.7 °F 6.8 °F 79% 29.94 in 10.0 mi East 6.9 mph - N/A   Clear
12:13 PM 12.2 °F 0.7 °F 8.6 °F 85% 29.92 in 10.0 mi ESE 8.1 mph - N/A   Clear
12:33 PM 14.0 °F 2.9 °F 8.6 °F 79% 29.89 in 10.0 mi East 8.1 mph - N/A   Clear
12:53 PM 14.0 °F 3.9 °F 8.6 °F 79% 29.88 in 10.0 mi East 6.9 mph - N/A   Clear
1:13 PM 15.8 °F 8.6 °F 8.6 °F 73% 29.89 in 10.0 mi East 4.6 mph - N/A   Clear
1:33 PM 15.8 °F 6.1 °F 8.6 °F 73% 29.87 in 10.0 mi East 6.9 mph - N/A   Clear
1:54 PM 15.8 °F 7.2 °F 8.6 °F 73% 29.85 in 10.0 mi East 5.8 mph - N/A   Clear
2:13 PM 15.8 °F 6.1 °F 10.4 °F 79% 29.85 in 10.0 mi ESE 6.9 mph - N/A   Clear
2:33 PM 15.8 °F - 10.4 °F 79% 29.86 in 10.0 mi Calm Calm - N/A   Clear
2:53 PM 15.8 °F 8.6 °F 8.6 °F 73% 29.85 in 10.0 mi NE 4.6 mph - N/A   Clear
3:13 PM 14.0 °F 5.1 °F 8.6 °F 79% 29.85 in 10.0 mi East 5.8 mph - N/A   Clear
3:33 PM 15.8 °F 7.2 °F 10.4 °F 79% 29.85 in 10.0 mi ESE 5.8 mph - N/A   Clear
3:54 PM 15.8 °F - 10.4 °F 79% 29.87 in 10.0 mi Calm Calm - N/A   Clear
4:13 PM 10.4 °F - 6.8 °F 85% 29.87 in 10.0 mi Calm Calm - N/A   Clear
4:34 PM 10.4 °F - 8.6 °F 92% 29.87 in 10.0 mi Calm Calm - N/A   Clear
4:39 PM 10.4 °F - 6.8 °F 85% 29.87 in 10.0 mi Calm Calm - N/A   Clear
5:14 PM 6.8 °F -5.9 °F 3.2 °F 85% 29.89 in 10.0 mi WNW 8.1 mph - N/A   Clear
5:34 PM 6.8 °F -6.9 °F 3.2 °F 85% 29.90 in 10.0 mi NW 9.2 mph - N/A   Clear
5:53 PM 6.8 °F -5.9 °F 3.2 °F 85% 29.91 in 10.0 mi NW 8.1 mph - N/A   Clear
6:13 PM 6.8 °F -5.9 °F 3.2 °F 85% 29.92 in 10.0 mi WNW 8.1 mph - N/A   Clear
6:33 PM 6.8 °F -7.8 °F 3.2 °F 85% 29.93 in 10.0 mi West 10.4 mph - N/A   Clear
6:53 PM 6.8 °F -5.9 °F 1.4 °F 79% 29.94 in 10.0 mi WNW 8.1 mph - N/A   Clear
7:13 PM 5.0 °F -9.1 °F 1.4 °F 85% 29.95 in 10.0 mi West 9.2 mph - N/A   Clear
7:33 PM 6.8 °F -6.9 °F 3.2 °F 85% 29.96 in 10.0 mi West 9.2 mph - N/A   Clear
7:53 PM 6.8 °F -6.9 °F 3.2 °F 85% 29.97 in 10.0 mi West 9.2 mph - N/A   Clear
8:13 PM 6.8 °F -4.8 °F 3.2 °F 85% 29.97 in 10.0 mi West 6.9 mph - N/A   Scattered Clouds
8:33 PM 10.4 °F -0.4 °F 6.8 °F 85% 29.98 in 10.0 mi West 6.9 mph - N/A   Mostly Cloudy
8:54 PM 15.8 °F 2.1 °F 12.2 °F 86% 29.99 in 10.0 mi NW 12.7 mph - N/A   Scattered Clouds
9:13 PM 17.6 °F 3.7 °F 15.8 °F 93% 29.99 in 10.0 mi NNW 13.8 mph - N/A   Mostly Cloudy
9:34 PM 21.2 °F 6.8 °F 17.6 °F 86% 30.00 in 10.0 mi NNW 17.3 mph - N/A   Overcast
9:53 PM 21.2 °F 6.0 °F 17.6 °F 86% 30.01 in 10.0 mi NW 19.6 mph 26.5 mph N/A   Overcast
10:13 PM 19.4 °F 5.0 °F 15.8 °F 86% 30.01 in 10.0 mi NNW 16.1 mph - N/A   Mostly Cloudy
10:33 PM 19.4 °F 4.1 °F 15.8 °F 86% 30.03 in 10.0 mi NNW 18.4 mph - N/A   Mostly Cloudy
10:53 PM 19.4 °F 4.5 °F 15.8 °F 86% 30.05 in 10.0 mi NNW 17.3 mph 26.5 mph N/A   Overcast
11:13 PM 19.4 °F 2.8 °F 15.8 °F 86% 30.05 in 5.0 mi North 21.9 mph 26.5 mph N/A   Overcast
11:33 PM 19.4 °F 4.5 °F 15.8 °F 86% 30.06 in 10.0 mi North 17.3 mph 24.2 mph N/A   Overcast
11:53 PM 19.4 °F 4.1 °F 15.8 °F 86% 30.06 in 10.0 mi North 18.4 mph 21.9 mph N/A   Overcast